DW1234 Weather Reports


Display with metric or nautical units.
time (UTC)temp
F
wind
direction
speed
MPH
gust
MPH
rain 1hr
in
rain 24hr
in
rain mn
in
humidity
%
barometer
mb
20260505052238 53 360 15.0 21.0 0.00 0.00 0.00 54 1009.3
20260505051749 53 17 15.0 21.0 0.00 0.00 0.00 55 1009.4
20260505051514 52 24 12.0 19.0 0.00 0.00 0.00 56 1008.5
20260505051233 53 5 12.0 19.0 0.00 0.00 0.00 56 1009.7
20260505050742 53 355 14.0 18.0 0.00 0.00 0.00 55 1010.0
20260505050226 53 19 12.0 20.0 0.00 0.00 0.00 56 1010.0
20260505041723 56 360 15.0 25.0 0.00 0.00 0.00 43 1010.0
20260505041522 55 355 14.0 25.0 0.00 0.00 0.00 43 1009.0
20260505041237 56 348 15.0 27.0 0.00 0.00 0.00 42 1010.0
20260505040747 56 360 17.0 27.0 0.00 0.00 0.00 42 1009.9
20260505040237 56 338 16.0 22.0 0.00 0.00 0.00 42 1009.7
20260505040004 56 348 14.0 24.0 0.00 0.00 0.00 42 1008.6
20260505035749 56 11 15.0 24.0 0.00 0.00 0.00 42 1009.6
20260505035230 56 10 18.0 24.0 0.00 0.00 0.00 42 1009.5
20260505034737 56 347 16.0 25.0 0.00 0.00 0.00 42 1009.5
20260505034515 56 351 16.0 26.0 0.00 0.00 0.00 42 1008.4
20260505034223 57 360 15.0 26.0 0.00 0.00 0.00 42 1009.5
20260505033733 57 348 19.0 26.0 0.00 0.00 0.00 42 1009.3
20260505033245 57 14 15.0 31.0 0.00 0.00 0.00 42 1009.0
20260505033012 56 355 17.0 31.0 0.00 0.00 0.00 42 1007.9
20260505032731 57 355 18.0 32.0 0.00 0.00 0.00 41 1008.9
20260505032241 57 20 22.0 32.0 0.00 0.00 0.00 40 1008.8
20260505031725 57 5 20.0 28.0 0.00 0.00 0.00 41 1009.0
20260505031518 57 15 18.0 30.0 0.00 0.00 0.00 41 1008.0
20260505031257 57 355 19.0 30.0 0.00 0.00 0.00 41 1009.0
20260505030740 57 355 22.0 34.0 0.00 0.00 0.00 41 1008.8
20260505030253 57 349 20.0 34.0 0.00 0.00 0.00 41 1008.7
20260505030038 57 5 24.0 35.0 0.00 0.00 0.00 41 1007.6
20260505025745 57 355 25.0 35.0 0.00 0.00 0.00 41 1008.6
20260505025255 58 14 22.0 35.0 0.00 0.00 0.00 42 1008.4
20260505024746 58 345 18.0 29.0 0.00 0.00 0.00 42 1008.7
20260505024539 57 32 16.0 29.0 0.00 0.00 0.00 42 1007.5
20260505024237 58 5 19.0 30.0 0.00 0.00 0.00 41 1008.5
20260505023742 58 13 22.0 30.0 0.00 0.00 0.00 41 1008.2
20260505023224 58 5 19.0 31.0 0.00 0.00 0.00 41 1008.1
20260505023036 58 346 22.0 31.0 0.00 0.00 0.00 41 1006.7
20260505022736 58 351 25.0 31.0 0.00 0.00 0.00 41 1007.7
20260505022246 58 5 20.0 33.0 0.00 0.00 0.00 41 1007.8
20260505021737 59 355 18.0 36.0 0.00 0.00 0.00 41 1007.7
20260505021515 58 355 27.0 36.0 0.00 0.00 0.00 41 1006.5
20260505021251 59 348 23.0 34.0 0.00 0.00 0.00 41 1007.3
20260505020739 59 26 26.0 34.0 0.00 0.00 0.00 41 1007.5
20260505020246 59 332 22.0 30.0 0.00 0.00 0.00 41 1007.6
20260505020105 59 355 18.0 30.0 0.00 0.00 0.00 41 1006.5
20260505015730 60 360 23.0 37.0 0.00 0.00 0.00 41 1007.7
20260505015242 60 5 20.0 37.0 0.00 0.00 0.00 40 1007.4
20260505014727 61 17 25.0 43.0 0.00 0.00 0.00 39 1007.0
20260505014508 60 355 29.0 43.0 0.00 0.00 0.00 38 1005.9
20260505014240 61 19 33.0 43.0 0.00 0.00 0.00 38 1006.8
20260505013721 62 351 22.0 33.0 0.00 0.00 0.00 38 1006.8
20260505013235 62 15 20.0 33.0 0.00 0.00 0.00 37 1006.8
20260505013007 62 355 17.0 33.0 0.00 0.00 0.00 37 1005.5
20260505012759 62 355 18.0 33.0 0.00 0.00 0.00 37 1006.8
20260505012249 63 5 22.0 33.0 0.00 0.00 0.00 36 1006.7
20260505011732 63 344 21.0 33.0 0.00 0.00 0.00 35 1006.6
20260505011555 63 13 18.0 33.0 0.00 0.00 0.00 35 1005.5
20260505011246 64 346 24.0 33.0 0.00 0.00 0.00 34 1006.6
20260505010728 64 360 20.0 39.0 0.00 0.00 0.00 34 1006.6
20260505010240 65 355 24.0 39.0 0.00 0.00 0.00 33 1006.4
20260505010109 64 5 28.0 39.0 0.00 0.00 0.00 33 1005.1
20260505005725 65 335 17.0 29.0 0.00 0.00 0.00 34 1006.3
20260505005236 66 9 20.0 30.0 0.00 0.00 0.00 33 1006.1
20260505004742 66 327 20.0 30.0 0.00 0.00 0.00 33 1006.1
20260505004556 66 350 18.0 29.0 0.00 0.00 0.00 32 1004.9
20260505004226 67 339 16.0 31.0 0.00 0.00 0.00 33 1006.1
20260505003736 67 5 20.0 32.0 0.00 0.00 0.00 32 1005.9
20260505003249 68 44 25.0 30.0 0.00 0.00 0.00 31 1005.7
20260505003020 68 355 21.0 30.0 0.00 0.00 0.00 31 1004.4
20260505002731 69 343 15.0 33.0 0.00 0.00 0.00 32 1005.8
20260505002243 69 351 24.0 33.0 0.00 0.00 0.00 31 1005.7
20260505001728 69 340 20.0 31.0 0.00 0.00 0.00 32 1005.4
20260505001514 69 355 23.0 31.0 0.00 0.00 0.00 32 1004.3
20260505001242 69 16 21.0 31.0 0.00 0.00 0.00 32 1005.4
20260505000724 70 355 21.0 30.0 0.00 0.00 0.00 31 1005.6
20260505000233 70 333 20.0 28.0 0.00 0.00 0.00 31 1005.6
20260505000016 70 11 17.0 28.0 0.00 0.00 0.00 31 1004.2
20260504235801 71 350 17.0 33.0 0.00 0.00 0.00 30 1005.6
20260504235224 71 5 22.0 34.0 0.00 0.00 0.00 29 1005.5
20260504234737 72 360 21.0 34.0 0.00 0.00 0.00 29 1005.3
20260504234552 72 12 17.0 27.0 0.00 0.00 0.00 30 1004.1
20260504234309 72 360 17.0 27.0 0.00 0.00 0.00 30 1005.4
20260504233729 72 9 17.0 29.0 0.00 0.00 0.00 31 1005.4
20260504233237 72 317 16.0 29.0 0.00 0.00 0.00 30 1005.2
20260504233030 72 355 18.0 29.0 0.00 0.00 0.00 30 1003.8
20260504232748 72 336 17.0 24.0 0.00 0.00 0.00 30 1005.1
20260504232237 73 355 17.0 26.0 0.00 0.00 0.00 29 1005.0
20260504231747 73 360 19.0 27.0 0.00 0.00 0.00 28 1005.0
20260504231515 73 15 17.0 27.0 0.00 0.00 0.00 28 1003.7
20260504231231 73 355 19.0 27.0 0.00 0.00 0.00 29 1004.9
20260504230742 74 355 18.0 30.0 0.00 0.00 0.00 29 1004.8
20260504230253 74 344 18.0 30.0 0.00 0.00 0.00 29 1004.7
20260504230025 74 327 20.0 30.0 0.00 0.00 0.00 29 1003.3
20260504225800 74 5 17.0 28.0 0.00 0.00 0.00 29 1004.6
20260504225224 75 334 19.0 27.0 0.00 0.00 0.00 29 1004.4
20260504224735 75 5 14.0 26.0 0.00 0.00 0.00 30 1004.4
20260504224509 75 349 18.0 26.0 0.00 0.00 0.00 29 1002.9
20260504224309 75 338 17.0 30.0 0.00 0.00 0.00 29 1004.2
20260504223730 76 348 17.0 30.0 0.00 0.00 0.00 29 1004.1
20260504223243 76 323 20.0 29.0 0.00 0.00 0.00 28 1003.9
20260504223043 76 338 20.0 29.0 0.00 0.00 0.00 28 1002.5
20260504222726 77 351 16.0 27.0 0.00 0.00 0.00 28 1003.8
20260504222234 77 360 20.0 27.0 0.00 0.00 0.00 27 1003.7
20260504221745 78 338 18.0 26.0 0.00 0.00 0.00 28 1003.6
20260504221545 77 333 18.0 26.0 0.00 0.00 0.00 28 1002.3
20260504221229 78 346 14.0 26.0 0.00 0.00 0.00 29 1003.4
20260504220739 78 10 19.0 26.0 0.00 0.00 0.00 28 1003.3
20260504220224 78 5 16.0 24.0 0.00 0.00 0.00 28 1003.2
20260504220051 78 347 15.0 24.0 0.00 0.00 0.00 28 1001.9
20260504215736 78 5 15.0 24.0 0.00 0.00 0.00 29 1003.3
20260504215248 79 24 15.0 27.0 0.00 0.00 0.00 31 1003.2
20260504214733 79 16 16.0 27.0 0.00 0.00 0.00 29 1003.4
20260504214559 79 335 19.0 27.0 0.00 0.00 0.00 29 1001.9
20260504214500 79 305 17.0 27.0 0.00 0.00 0.00 28 1001.9
20260504214243 79 333 14.0 23.0 0.00 0.00 0.00 31 1003.3
20260504213725 79 360 15.0 24.0 0.00 0.00 0.00 32 1003.2
20260504213239 79 355 16.0 24.0 0.00 0.00 0.00 30 1003.2
20260504213011 79 333 18.0 24.0 0.00 0.00 0.00 29 1001.9
20260504212749 80 355 14.0 24.0 0.00 0.00 0.00 31 1003.2
20260504212233 80 30 14.0 23.0 0.00 0.00 0.00 33 1003.2
20260504211746 80 338 17.0 25.0 0.00 0.00 0.00 31 1003.1
20260504211557 79 5 16.0 25.0 0.00 0.00 0.00 31 1001.7
20260504211237 80 350 17.0 25.0 0.00 0.00 0.00 32 1003.1
20260504210746 80 29 14.0 26.0 0.00 0.00 0.00 32 1003.0
20260504210238 80 12 19.0 26.0 0.00 0.00 0.00 31 1003.0
20260504210054 80 340 18.0 25.0 0.00 0.00 0.00 33 1001.7
20260504205721 81 351 11.0 19.0 0.00 0.00 0.00 34 1003.0
20260504205232 81 351 14.0 26.0 0.00 0.00 0.00 32 1002.9
20260504204748 81 360 17.0 26.0 0.00 0.00 0.00 33 1002.9
20260504204559 80 340 15.0 23.0 0.00 0.00 0.00 33 1001.5
20260504204232 81 355 14.0 22.0 0.00 0.00 0.00 32 1003.0
20260504203742 81 327 15.0 22.0 0.00 0.00 0.00 32 1002.9
20260504203226 81 355 14.0 21.0 0.00 0.00 0.00 30 1002.8
20260504203106 81 15 15.0 21.0 0.00 0.00 0.00 34 1001.5
20260504202752 81 321 16.0 24.0 0.00 0.00 0.00 32 1002.7
20260504202244 81 336 16.0 24.0 0.00 0.00 0.00 32 1002.9
20260504201728 82 346 16.0 22.0 0.00 0.00 0.00 32 1002.9
20260504201541 82 331 10.0 22.0 0.00 0.00 0.00 31 1001.5
20260504201241 82 321 14.0 23.0 0.00 0.00 0.00 31 1003.1
20260504200724 82 350 15.0 24.0 0.00 0.00 0.00 31 1002.9
20260504200235 82 304 13.0 24.0 0.00 0.00 0.00 31 1002.9
20260504200047 81 360 16.0 24.0 0.00 0.00 0.00 32 1001.5
20260504195747 82 351 15.0 25.0 0.00 0.00 0.00 31 1002.8
20260504195228 83 360 13.0 26.0 0.00 0.00 0.00 33 1002.7
20260504194732 82 319 16.0 21.0 0.00 0.00 0.00 33 1002.8
20260504194600 82 328 13.0 22.0 0.00 0.00 0.00 32 1001.6
20260504194246 83 360 14.0 23.0 0.00 0.00 0.00 31 1002.8
20260504193736 83 346 16.0 23.0 0.00 0.00 0.00 31 1002.7
20260504193246 84 351 12.0 25.0 0.00 0.00 0.00 30 1002.6
20260504193036 84 338 15.0 25.0 0.00 0.00 0.00 30 1001.3
20260504192728 84 319 13.0 20.0 0.00 0.00 0.00 30 1002.5
20260504192239 84 323 8.0 23.0 0.00 0.00 0.00 28 1002.6
20260504191721 85 291 14.0 23.0 0.00 0.00 0.00 28 1002.5
20260504191545 84 308 12.0 21.0 0.00 0.00 0.00 28 1001.3
20260504191231 85 319 12.0 24.0 0.00 0.00 0.00 28 1002.5
20260504190741 84 300 14.0 24.0 0.00 0.00 0.00 28 1002.5
20260504190224 84 321 9.0 21.0 0.00 0.00 0.00 30 1002.4
20260504190108 83 283 13.0 25.0 0.00 0.00 0.00 29 1001.2
20260504185736 83 317 14.0 25.0 0.00 0.00 0.00 28 1002.4
20260504185248 84 318 15.0 26.0 0.00 0.00 0.00 26 1002.3
20260504184739 84 9 13.0 22.0 0.00 0.00 0.00 27 1002.3
20260504184535 84 315 13.0 22.0 0.00 0.00 0.00 28 1001.2
20260504184224 84 313 13.0 20.0 0.00 0.00 0.00 29 1002.4
20260504183733 84 285 12.0 21.0 0.00 0.00 0.00 29 1002.4
20260504183241 83 290 14.0 21.0 0.00 0.00 0.00 29 1002.3
20260504183036 83 303 15.0 23.0 0.00 0.00 0.00 29 1001.2
20260504182722 83 318 13.0 23.0 0.00 0.00 0.00 30 1002.5
20260504182234 83 304 17.0 25.0 0.00 0.00 0.00 28 1002.6
20260504181746 83 303 15.0 25.0 0.00 0.00 0.00 28 1002.6
20260504181524 82 301 13.0 25.0 0.00 0.00 0.00 30 1001.4
20260504181229 83 332 16.0 25.0 0.00 0.00 0.00 29 1002.6
20260504180739 83 294 14.0 22.0 0.00 0.00 0.00 27 1002.6
20260504180222 83 288 14.0 22.0 0.00 0.00 0.00 29 1002.7
20260504180029 83 294 15.0 22.0 0.00 0.00 0.00 28 1001.5
20260504175730 83 313 13.0 22.0 0.00 0.00 0.00 31 1002.6
20260504175240 83 316 15.0 24.0 0.00 0.00 0.00 32 1002.7
20260504174723 83 332 17.0 24.0 0.00 0.00 0.00 29 1002.8
20260504174529 83 309 14.0 24.0 0.00 0.00 0.00 31 1001.6
20260504174236 82 340 15.0 21.0 0.00 0.00 0.00 32 1002.7
20260504173747 82 339 9.0 16.0 0.00 0.00 0.00 32 1002.8
20260504173230 81 319 11.0 19.0 0.00 0.00 0.00 32 1002.9
20260504173027 81 338 11.0 23.0 0.00 0.00 0.00 33 1001.7
20260504172742 81 296 10.0 23.0 0.00 0.00 0.00 33 1003.0
20260504172225 82 277 10.0 15.0 0.00 0.00 0.00 32 1003.0
20260504171733 82 292 10.0 21.0 0.00 0.00 0.00 33 1003.0
20260504171535 81 314 9.0 21.0 0.00 0.00 0.00 34 1001.9
20260504171245 81 292 14.0 21.0 0.00 0.00 0.00 34 1003.2
20260504170727 80 319 10.0 19.0 0.00 0.00 0.00 35 1003.3
20260504170238 80 345 10.0 19.0 0.00 0.00 0.00 37 1003.2
20260504160228 76 279 8.0 13.0 0.00 0.00 0.00 42 1003.2
20260504150741 71 278 6.0 11.0 0.00 0.00 0.00 45 1003.3
20260504150225 71 307 7.0 10.0 0.00 0.00 0.00 43 1003.2
20260504141249 66 303 7.0 12.0 0.00 0.00 0.00 53 1003.5
20260504140731 65 342 7.0 14.0 0.00 0.00 0.00 55 1003.6
20260504140242 65 296 10.0 14.0 0.00 0.00 0.00 53 1003.7
20260504130740 62 325 2.0 4.0 0.00 0.00 0.00 58 1003.3
20260504130222 60 256 1.0 2.0 0.00 0.00 0.00 60 1003.2
20260504120252 51 355 2.0 3.0 0.00 0.00 0.00 68 1003.2
20260504110243 52 171 2.0 3.0 0.00 0.00 0.00 62 1003.0
20260504100242 54 165 5.0 7.0 0.00 0.00 0.00 59 1003.3
20260504081801 54 175 3.0 6.0 0.00 0.00 0.00 57 1004.6
20260504081535 54 179 4.0 7.0 0.00 0.00 0.00 57 1003.6
20260504081224 55 163 4.0 7.0 0.00 0.00 0.00 57 1004.7
20260504080736 55 169 5.0 7.0 0.00 0.00 0.00 57 1004.8
20260504080246 55 175 4.0 6.0 0.00 0.00 0.00 57 1004.8
20260504070236 56 169 5.0 6.0 0.00 0.00 0.00 56 1005.9
20260504060235 57 169 3.0 5.0 0.00 0.00 0.00 56 1006.7